| time (UTC) | temp F | wind direction | speed MPH | gust MPH | rain 1hr in | rain 24hr in | rain mn in | humidity % | barometer mb |
| 20260502224004 | 59 | 321 | 3.0 | 8.0 | 0.00 | 0.00 | 0.00 | 40 | 1011.6 |
| 20260502223504 | 59 | 340 | 2.0 | 6.0 | 0.00 | 0.00 | 0.00 | 40 | 1011.6 |
| 20260502223025 | 59 | 328 | 2.0 | 7.0 | 0.00 | 0.00 | 0.00 | 40 | 1011.5 |
| 20260502222525 | 59 | 319 | 2.0 | 7.0 | 0.00 | 0.00 | 0.00 | 40 | 1011.6 |
| 20260502222004 | 59 | 320 | 3.0 | 10.0 | 0.00 | 0.00 | 0.00 | 39 | 1011.5 |
| 20260502221526 | 60 | 307 | 2.0 | 10.0 | 0.00 | 0.00 | 0.00 | 39 | 1011.6 |
| 20260502221025 | 60 | 287 | 2.0 | 6.0 | 0.00 | 0.00 | 0.00 | 38 | 1011.6 |
| 20260502220505 | 60 | 288 | 3.0 | 10.0 | 0.00 | 0.00 | 0.00 | 39 | 1011.6 |
| 20260502220025 | 61 | 296 | 4.0 | 13.0 | 0.00 | 0.00 | 0.00 | 37 | 1011.6 |
| 20260502215504 | 61 | 310 | 4.0 | 13.0 | 0.00 | 0.00 | 0.00 | 37 | 1011.5 |
| 20260502215004 | 61 | 313 | 3.0 | 11.0 | 0.00 | 0.00 | 0.00 | 37 | 1011.5 |
| 20260502214525 | 61 | 307 | 2.0 | 8.0 | 0.00 | 0.00 | 0.00 | 39 | 1011.5 |
| 20260502214004 | 61 | 312 | 2.0 | 6.0 | 0.00 | 0.00 | 0.00 | 40 | 1011.5 |
| 20260502213525 | 61 | 323 | 2.0 | 7.0 | 0.00 | 0.00 | 0.00 | 39 | 1011.5 |
| 20260502213025 | 61 | 315 | 2.0 | 7.0 | 0.00 | 0.00 | 0.00 | 38 | 1011.4 |
| 20260502212526 | 62 | 319 | 2.0 | 5.0 | 0.00 | 0.00 | 0.00 | 39 | 1011.4 |
| 20260502212005 | 62 | 331 | 1.0 | 4.0 | 0.00 | 0.00 | 0.00 | 38 | 1011.3 |
| 20260502211504 | 62 | 329 | 1.0 | 5.0 | 0.00 | 0.00 | 0.00 | 40 | 1011.4 |
| 20260502211025 | 62 | 336 | 2.0 | 9.0 | 0.00 | 0.00 | 0.00 | 39 | 1011.2 |
| 20260502210525 | 62 | 316 | 3.0 | 9.0 | 0.00 | 0.00 | 0.00 | 36 | 1011.2 |
| 20260502210025 | 62 | 321 | 3.0 | 9.0 | 0.00 | 0.00 | 0.00 | 38 | 1011.1 |
| 20260502205505 | 62 | 356 | 2.0 | 5.0 | 0.00 | 0.00 | 0.00 | 39 | 1011.1 |
| 20260502205025 | 62 | 340 | 2.0 | 5.0 | 0.00 | 0.00 | 0.00 | 38 | 1011.1 |
| 20260502204504 | 62 | 326 | 2.0 | 5.0 | 0.00 | 0.00 | 0.00 | 39 | 1011.1 |
| 20260502204025 | 62 | 328 | 1.0 | 3.0 | 0.00 | 0.00 | 0.00 | 38 | 1011.1 |
| 20260502203525 | 62 | 327 | 1.0 | 8.0 | 0.00 | 0.00 | 0.00 | 38 | 1011.2 |
| 20260502203005 | 62 | 329 | 2.0 | 8.0 | 0.00 | 0.00 | 0.00 | 37 | 1011.2 |
| 20260502202504 | 62 | 349 | 2.0 | 6.0 | 0.00 | 0.00 | 0.00 | 38 | 1011.2 |
| 20260502202025 | 62 | 336 | 2.0 | 7.0 | 0.00 | 0.00 | 0.00 | 39 | 1011.1 |
| 20260502201526 | 63 | 304 | 2.0 | 8.0 | 0.00 | 0.00 | 0.00 | 38 | 1011.2 |
| 20260502201004 | 63 | 327 | 3.0 | 12.0 | 0.00 | 0.00 | 0.00 | 38 | 1011.2 |
| 20260502200504 | 62 | 337 | 3.0 | 12.0 | 0.00 | 0.00 | 0.00 | 37 | 1011.2 |
| 20260502200004 | 63 | 348 | 2.0 | 9.0 | 0.00 | 0.00 | 0.00 | 38 | 1011.3 |
| 20260502195504 | 63 | 347 | 2.0 | 9.0 | 0.00 | 0.00 | 0.00 | 38 | 1011.3 |
| 20260502195004 | 63 | 298 | 3.0 | 9.0 | 0.00 | 0.00 | 0.00 | 37 | 1011.4 |
| 20260502194525 | 62 | 306 | 2.0 | 7.0 | 0.00 | 0.00 | 0.00 | 40 | 1011.4 |
| 20260502194004 | 61 | 303 | 3.0 | 8.0 | 0.00 | 0.00 | 0.00 | 38 | 1011.6 |
| 20260502193504 | 61 | 287 | 3.0 | 9.0 | 0.00 | 0.00 | 0.00 | 38 | 1011.8 |
| 20260502193004 | 61 | 300 | 3.0 | 9.0 | 0.00 | 0.00 | 0.00 | 39 | 1011.8 |
| 20260502192525 | 61 | 334 | 3.0 | 9.0 | 0.00 | 0.00 | 0.00 | 38 | 1012.0 |
| 20260502192004 | 61 | 333 | 3.0 | 10.0 | 0.00 | 0.00 | 0.00 | 37 | 1012.1 |
| 20260502191525 | 62 | 322 | 3.0 | 10.0 | 0.00 | 0.00 | 0.00 | 39 | 1012.1 |
| 20260502191025 | 62 | 327 | 3.0 | 8.0 | 0.00 | 0.00 | 0.00 | 39 | 1012.2 |
| 20260502190504 | 62 | 320 | 2.0 | 5.0 | 0.00 | 0.00 | 0.00 | 39 | 1012.3 |
| 20260502190004 | 62 | 305 | 2.0 | 6.0 | 0.00 | 0.00 | 0.00 | 38 | 1012.4 |
| 20260502185504 | 63 | 311 | 2.0 | 7.0 | 0.00 | 0.00 | 0.00 | 37 | 1012.4 |
| 20260502185025 | 63 | 291 | 2.0 | 8.0 | 0.00 | 0.00 | 0.00 | 36 | 1012.6 |
| 20260502184504 | 64 | 288 | 2.0 | 8.0 | 0.00 | 0.00 | 0.00 | 35 | 1012.6 |
| 20260502184025 | 64 | 342 | 2.0 | 8.0 | 0.00 | 0.00 | 0.00 | 38 | 1012.7 |
| 20260502183504 | 63 | 326 | 3.0 | 8.0 | 0.00 | 0.00 | 0.00 | 33 | 1012.8 |
| 20260502182504 | 63 | 282 | 3.0 | 13.0 | 0.00 | 0.00 | 0.00 | 36 | 1012.9 |
| 20260502182025 | 63 | 291 | 3.0 | 13.0 | 0.00 | 0.00 | 0.00 | 35 | 1013.1 |
| 20260502181504 | 64 | 331 | 2.0 | 7.0 | 0.00 | 0.00 | 0.00 | 37 | 1013.1 |
| 20260502181004 | 64 | 27 | 2.0 | 5.0 | 0.00 | 0.00 | 0.00 | 36 | 1013.2 |
| 20260502180525 | 63 | 333 | 2.0 | 8.0 | 0.00 | 0.00 | 0.00 | 39 | 1013.1 |
| 20260502170505 | 62 | 319 | 2.0 | 5.0 | 0.00 | 0.00 | 0.00 | 41 | 1013.5 |
| 20260502164004 | 60 | 339 | 2.0 | 10.0 | 0.00 | 0.00 | 0.00 | 42 | 1013.7 |
| 20260502163505 | 60 | 325 | 3.0 | 10.0 | 0.00 | 0.00 | 0.00 | 43 | 1013.7 |
| 20260502163004 | 60 | 328 | 3.0 | 10.0 | 0.00 | 0.00 | 0.00 | 44 | 1013.8 |
| 20260502162526 | 60 | 348 | 2.0 | 7.0 | 0.00 | 0.00 | 0.00 | 43 | 1013.9 |
| 20260502162004 | 60 | 357 | 2.0 | 5.0 | 0.00 | 0.00 | 0.00 | 47 | 1013.8 |
| 20260502161504 | 60 | 317 | 3.0 | 9.0 | 0.00 | 0.00 | 0.00 | 44 | 1013.9 |
| 20260502161004 | 60 | 315 | 2.0 | 9.0 | 0.00 | 0.00 | 0.00 | 43 | 1013.9 |
| 20260502160504 | 60 | 29 | 2.0 | 5.0 | 0.00 | 0.00 | 0.00 | 46 | 1013.8 |
| 20260502151504 | 58 | 351 | 2.0 | 8.0 | 0.00 | 0.00 | 0.00 | 50 | 1014.4 |
| 20260502151004 | 58 | 354 | 2.0 | 8.0 | 0.00 | 0.00 | 0.00 | 52 | 1014.3 |
| 20260502150525 | 57 | 13 | 2.0 | 6.0 | 0.00 | 0.00 | 0.00 | 52 | 1014.2 |
| 20260502130525 | 51 | 316 | 3.0 | 9.0 | 0.00 | 0.00 | 0.00 | 66 | 1014.0 |
| 20260502123525 | 52 | 313 | 2.0 | 11.0 | 0.00 | 0.00 | 0.00 | 67 | 1014.1 |
| 20260502123004 | 52 | 314 | 3.0 | 11.0 | 0.00 | 0.00 | 0.00 | 66 | 1014.1 |
| 20260502122525 | 51 | 330 | 3.0 | 10.0 | 0.00 | 0.00 | 0.00 | 66 | 1014.2 |
| 20260502122025 | 51 | 335 | 2.0 | 7.0 | 0.00 | 0.00 | 0.00 | 68 | 1014.3 |
| 20260502121504 | 50 | 310 | 2.0 | 10.0 | 0.00 | 0.00 | 0.00 | 68 | 1014.3 |
| 20260502121025 | 50 | 304 | 4.0 | 11.0 | 0.00 | 0.00 | 0.00 | 68 | 1014.2 |
| 20260502120525 | 50 | 311 | 3.0 | 11.0 | 0.00 | 0.00 | 0.00 | 68 | 1014.1 |
| 20260502115504 | 50 | 310 | 2.0 | 9.0 | 0.00 | 0.00 | 0.00 | 68 | 1014.1 |
| 20260502115004 | 50 | 308 | 3.0 | 9.0 | 0.00 | 0.00 | 0.00 | 68 | 1014.1 |
| 20260502114525 | 50 | 309 | 2.0 | 9.0 | 0.00 | 0.00 | 0.00 | 68 | 1014.1 |
| 20260502114025 | 50 | 316 | 2.0 | 6.0 | 0.00 | 0.00 | 0.00 | 68 | 1014.1 |
| 20260502113504 | 50 | 315 | 3.0 | 8.0 | 0.00 | 0.00 | 0.00 | 68 | 1014.1 |
| 20260502113004 | 50 | 314 | 3.0 | 14.0 | 0.00 | 0.00 | 0.00 | 68 | 1014.2 |
| 20260502112525 | 50 | 312 | 4.0 | 14.0 | 0.00 | 0.00 | 0.00 | 68 | 1014.1 |
| 20260502112025 | 50 | 319 | 3.0 | 10.0 | 0.00 | 0.00 | 0.00 | 67 | 1014.0 |
| 20260502111527 | 50 | 329 | 3.0 | 10.0 | 0.00 | 0.00 | 0.00 | 68 | 1014.0 |
| 20260502111025 | 50 | 328 | 3.0 | 11.0 | 0.00 | 0.00 | 0.00 | 68 | 1014.0 |
| 20260502110525 | 50 | 326 | 4.0 | 11.0 | 0.00 | 0.00 | 0.00 | 68 | 1013.9 |
| 20260502110025 | 50 | 313 | 3.0 | 10.0 | 0.00 | 0.00 | 0.00 | 69 | 1013.8 |
| 20260502105525 | 50 | 306 | 3.0 | 8.0 | 0.00 | 0.00 | 0.00 | 69 | 1013.9 |
| 20260502105004 | 50 | 316 | 2.0 | 7.0 | 0.00 | 0.00 | 0.00 | 69 | 1013.7 |
| 20260502104504 | 50 | 321 | 1.0 | 4.0 | 0.00 | 0.00 | 0.00 | 69 | 1013.7 |
| 20260502104004 | 50 | 288 | 1.0 | 4.0 | 0.00 | 0.00 | 0.00 | 69 | 1013.7 |
| 20260502103504 | 50 | 293 | 2.0 | 5.0 | 0.00 | 0.00 | 0.00 | 69 | 1013.6 |
| 20260502103004 | 50 | 301 | 3.0 | 8.0 | 0.00 | 0.00 | 0.00 | 68 | 1013.6 |
| 20260502102525 | 50 | 294 | 3.0 | 8.0 | 0.00 | 0.00 | 0.00 | 67 | 1013.5 |
| 20260502102004 | 50 | 295 | 3.0 | 7.0 | 0.00 | 0.00 | 0.00 | 67 | 1013.4 |
| 20260502101504 | 50 | 293 | 3.0 | 14.0 | 0.00 | 0.00 | 0.00 | 66 | 1013.3 |
| 20260502101025 | 51 | 283 | 4.0 | 14.0 | 0.00 | 0.00 | 0.00 | 66 | 1013.3 |
| 20260502100504 | 51 | 282 | 4.0 | 11.0 | 0.00 | 0.00 | 0.00 | 66 | 1013.3 |
| 20260502091504 | 52 | 317 | 3.0 | 10.0 | 0.00 | 0.00 | 0.00 | 70 | 1012.5 |
| 20260502091025 | 51 | 312 | 2.0 | 10.0 | 0.00 | 0.00 | 0.00 | 71 | 1012.5 |
| 20260502090505 | 51 | 306 | 2.0 | 8.0 | 0.00 | 0.00 | 0.00 | 72 | 1012.5 |
| 20260502071504 | 52 | 30 | 0.0 | 1.0 | 0.00 | 0.00 | 0.00 | 80 | 1012.2 |
| 20260502071004 | 52 | 30 | 0.0 | 1.0 | 0.00 | 0.00 | 0.00 | 80 | 1012.2 |
| 20260502070525 | 52 | 30 | 0.0 | 1.0 | 0.00 | 0.00 | 0.00 | 80 | 1012.1 |
| 20260502070025 | 52 | 30 | 0.0 | 1.0 | 0.00 | 0.00 | 0.00 | 80 | 1012.1 |
| 20260502065504 | 52 | 6 | 0.0 | 2.0 | 0.00 | 0.00 | 0.00 | 80 | 1012.0 |
| 20260502065004 | 52 | 344 | 0.0 | 2.0 | 0.00 | 0.00 | 0.00 | 80 | 1011.8 |
| 20260502064526 | 52 | 331 | 1.0 | 2.0 | 0.00 | 0.00 | 0.00 | 80 | 1012.0 |
| 20260502064004 | 52 | 326 | 1.0 | 4.0 | 0.00 | 0.00 | 0.00 | 81 | 1011.9 |
| 20260502063525 | 52 | 325 | 2.0 | 4.0 | 0.00 | 0.00 | 0.00 | 81 | 1011.9 |
| 20260502063025 | 52 | 327 | 1.0 | 4.0 | 0.00 | 0.00 | 0.00 | 81 | 1012.0 |
| 20260502062526 | 53 | 309 | 1.0 | 3.0 | 0.00 | 0.00 | 0.00 | 81 | 1012.2 |
| 20260502062004 | 53 | 281 | 1.0 | 3.0 | 0.00 | 0.00 | 0.00 | 81 | 1012.3 |
| 20260502061004 | 53 | 243 | 0.0 | 1.0 | 0.00 | 0.00 | 0.00 | 80 | 1012.5 |
| 20260502060504 | 54 | 243 | 0.0 | 1.0 | 0.00 | 0.00 | 0.00 | 80 | 1012.4 |
| 20260502060026 | 54 | 243 | 0.0 | 1.0 | 0.00 | 0.00 | 0.00 | 79 | 1012.3 |
| 20260502055504 | 54 | 239 | 0.0 | 2.0 | 0.00 | 0.00 | 0.00 | 79 | 1012.4 |
| 20260502055025 | 54 | 236 | 0.0 | 2.0 | 0.00 | 0.00 | 0.00 | 79 | 1012.5 |
| 20260502054504 | 54 | 0 | 0.0 | 0.0 | 0.00 | 0.00 | 0.00 | 79 | 1012.5 |
| 20260502054005 | 54 | 192 | 0.0 | 2.0 | 0.00 | 0.00 | 0.00 | 79 | 1012.4 |
| 20260502053525 | 54 | 192 | 0.0 | 2.0 | 0.00 | 0.00 | 0.00 | 79 | 1012.4 |
| 20260502053004 | 54 | 192 | 0.0 | 1.0 | 0.00 | 0.00 | 0.00 | 78 | 1012.6 |
| 20260502052525 | 54 | 192 | 0.0 | 1.0 | 0.00 | 0.00 | 0.00 | 78 | 1012.7 |
| 20260502052005 | 55 | 192 | 0.0 | 2.0 | 0.00 | 0.00 | 0.00 | 78 | 1012.6 |
| 20260502051504 | 55 | 192 | 0.0 | 2.0 | 0.00 | 0.00 | 0.00 | 77 | 1012.7 |
| 20260502051004 | 55 | 191 | 0.0 | 3.0 | 0.00 | 0.00 | 0.00 | 77 | 1012.6 |
| 20260502050504 | 55 | 223 | 1.0 | 3.0 | 0.00 | 0.00 | 0.00 | 77 | 1012.9 |
| 20260502050005 | 55 | 263 | 1.0 | 4.0 | 0.00 | 0.00 | 0.00 | 77 | 1013.0 |
| 20260502045504 | 55 | 266 | 1.0 | 4.0 | 0.00 | 0.00 | 0.00 | 78 | 1013.0 |
| 20260502045004 | 55 | 206 | 1.0 | 5.0 | 0.00 | 0.00 | 0.00 | 77 | 1013.0 |
| 20260502044505 | 56 | 217 | 1.0 | 7.0 | 0.00 | 0.00 | 0.00 | 78 | 1012.9 |
| 20260502044025 | 56 | 247 | 2.0 | 7.0 | 0.00 | 0.00 | 0.00 | 77 | 1012.8 |
| 20260502043526 | 56 | 258 | 2.0 | 7.0 | 0.00 | 0.00 | 0.00 | 77 | 1012.9 |
| 20260502043025 | 56 | 250 | 2.0 | 4.0 | 0.00 | 0.00 | 0.00 | 77 | 1012.7 |
| 20260502042525 | 56 | 251 | 1.0 | 4.0 | 0.00 | 0.00 | 0.00 | 77 | 1012.7 |
| 20260502042004 | 56 | 216 | 2.0 | 7.0 | 0.00 | 0.00 | 0.00 | 77 | 1012.6 |
| 20260502041504 | 57 | 199 | 3.0 | 7.0 | 0.00 | 0.00 | 0.00 | 77 | 1012.4 |
| 20260502041025 | 57 | 191 | 2.0 | 7.0 | 0.00 | 0.00 | 0.00 | 78 | 1012.3 |
| 20260502040504 | 57 | 185 | 2.0 | 7.0 | 0.00 | 0.00 | 0.00 | 77 | 1012.2 |
| 20260502040004 | 57 | 180 | 2.0 | 6.0 | 0.00 | 0.00 | 0.00 | 78 | 1012.1 |
| 20260502035526 | 57 | 178 | 1.0 | 6.0 | 0.00 | 0.00 | 0.00 | 78 | 1012.1 |
| 20260502035004 | 57 | 175 | 2.0 | 7.0 | 0.00 | 0.00 | 0.00 | 78 | 1012.1 |
| 20260502034504 | 57 | 158 | 3.0 | 8.0 | 0.00 | 0.00 | 0.00 | 78 | 1012.0 |
| 20260502034025 | 57 | 136 | 3.0 | 10.0 | 0.00 | 0.00 | 0.00 | 78 | 1011.9 |
| 20260502033525 | 57 | 145 | 3.0 | 10.0 | 0.00 | 0.00 | 0.00 | 78 | 1011.8 |
| 20260502033025 | 57 | 156 | 2.0 | 6.0 | 0.00 | 0.00 | 0.00 | 78 | 1011.9 |
| 20260502032505 | 57 | 157 | 2.0 | 11.0 | 0.00 | 0.00 | 0.00 | 77 | 1011.9 |
| 20260502032004 | 57 | 159 | 3.0 | 11.0 | 0.00 | 0.00 | 0.00 | 77 | 1011.7 |
| 20260502031504 | 57 | 161 | 3.0 | 10.0 | 0.00 | 0.00 | 0.00 | 77 | 1011.7 |
| 20260502031025 | 57 | 150 | 4.0 | 13.0 | 0.00 | 0.00 | 0.00 | 77 | 1011.6 |
| 20260502030525 | 57 | 153 | 3.0 | 13.0 | 0.00 | 0.00 | 0.00 | 77 | 1011.5 |
| 20260502030025 | 57 | 160 | 3.0 | 14.0 | 0.00 | 0.00 | 0.00 | 77 | 1011.6 |
| 20260502025526 | 57 | 153 | 3.0 | 14.0 | 0.00 | 0.00 | 0.00 | 77 | 1011.6 |
| 20260502025004 | 57 | 162 | 2.0 | 8.0 | 0.00 | 0.00 | 0.00 | 77 | 1011.7 |
| 20260502024504 | 57 | 139 | 3.0 | 10.0 | 0.00 | 0.00 | 0.00 | 77 | 1011.7 |
| 20260502024004 | 58 | 138 | 4.0 | 11.0 | 0.00 | 0.00 | 0.00 | 77 | 1011.6 |
| 20260502023504 | 58 | 160 | 3.0 | 11.0 | 0.00 | 0.00 | 0.00 | 76 | 1011.8 |
| 20260502023004 | 58 | 161 | 3.0 | 11.0 | 0.00 | 0.00 | 0.00 | 76 | 1011.8 |
| 20260502022504 | 58 | 160 | 3.0 | 11.0 | 0.00 | 0.00 | 0.00 | 74 | 1011.8 |
| 20260502022004 | 58 | 157 | 2.0 | 11.0 | 0.00 | 0.00 | 0.00 | 73 | 1011.9 |
| 20260502021504 | 57 | 158 | 2.0 | 7.0 | 0.00 | 0.00 | 0.00 | 71 | 1011.9 |
| 20260502021005 | 57 | 164 | 2.0 | 7.0 | 0.00 | 0.00 | 0.00 | 69 | 1012.0 |
| 20260502020525 | 57 | 149 | 2.0 | 7.0 | 0.00 | 0.00 | 0.00 | 68 | 1011.9 |
| 20260502020025 | 57 | 135 | 2.0 | 6.0 | 0.00 | 0.00 | 0.00 | 68 | 1011.9 |
| 20260502015525 | 58 | 144 | 2.0 | 7.0 | 0.00 | 0.00 | 0.00 | 67 | 1011.9 |
| 20260502015004 | 58 | 148 | 2.0 | 10.0 | 0.00 | 0.00 | 0.00 | 66 | 1011.8 |
| 20260502014504 | 58 | 148 | 2.0 | 10.0 | 0.00 | 0.00 | 0.00 | 66 | 1011.8 |
| 20260502014004 | 58 | 133 | 3.0 | 7.0 | 0.00 | 0.00 | 0.00 | 66 | 1011.8 |
| 20260502013504 | 58 | 131 | 3.0 | 8.0 | 0.00 | 0.00 | 0.00 | 66 | 1011.8 |
| 20260502013025 | 58 | 148 | 2.0 | 8.0 | 0.00 | 0.00 | 0.00 | 66 | 1011.7 |
| 20260502012504 | 58 | 145 | 3.0 | 7.0 | 0.00 | 0.00 | 0.00 | 65 | 1011.6 |
| 20260502012025 | 58 | 128 | 3.0 | 11.0 | 0.00 | 0.00 | 0.00 | 66 | 1011.7 |
| 20260502011505 | 58 | 140 | 2.0 | 11.0 | 0.00 | 0.00 | 0.00 | 66 | 1011.6 |
| 20260502011025 | 58 | 161 | 2.0 | 6.0 | 0.00 | 0.00 | 0.00 | 66 | 1011.4 |
| 20260502010504 | 58 | 150 | 2.0 | 7.0 | 0.00 | 0.00 | 0.00 | 66 | 1011.3 |
| 20260502010004 | 58 | 128 | 2.0 | 7.0 | 0.00 | 0.00 | 0.00 | 65 | 1011.4 |
| 20260502005525 | 58 | 147 | 2.0 | 7.0 | 0.00 | 0.00 | 0.00 | 64 | 1011.4 |
| 20260502005025 | 58 | 177 | 3.0 | 9.0 | 0.00 | 0.00 | 0.00 | 64 | 1011.4 |
| 20260502004524 | 58 | 160 | 2.0 | 9.0 | 0.00 | 0.00 | 0.00 | 63 | 1011.2 |
| 20260502004004 | 58 | 146 | 2.0 | 9.0 | 0.00 | 0.00 | 0.00 | 63 | 1011.1 |
| 20260502003525 | 58 | 142 | 3.0 | 9.0 | 0.00 | 0.00 | 0.00 | 61 | 1011.0 |
| 20260502003004 | 58 | 148 | 2.0 | 7.0 | 0.00 | 0.00 | 0.00 | 61 | 1011.1 |
| 20260502002506 | 58 | 150 | 2.0 | 8.0 | 0.00 | 0.00 | 0.00 | 60 | 1011.1 |
| 20260502002004 | 58 | 150 | 2.0 | 8.0 | 0.00 | 0.00 | 0.00 | 59 | 1011.0 |
| 20260502001504 | 58 | 160 | 2.0 | 7.0 | 0.00 | 0.00 | 0.00 | 58 | 1011.2 |
| 20260502001025 | 58 | 164 | 2.0 | 7.0 | 0.00 | 0.00 | 0.00 | 57 | 1011.2 |
| 20260502000525 | 58 | 144 | 2.0 | 8.0 | 0.00 | 0.00 | 0.00 | 56 | 1011.0 |
| 20260502000025 | 59 | 139 | 3.0 | 8.0 | 0.00 | 0.00 | 0.00 | 55 | 1010.7 |
| 20260501235504 | 59 | 152 | 2.0 | 8.0 | 0.00 | 0.00 | 0.00 | 54 | 1010.6 |
| 20260501235025 | 59 | 138 | 2.0 | 8.0 | 0.00 | 0.00 | 0.00 | 54 | 1010.7 |
| 20260501234525 | 60 | 131 | 3.0 | 9.0 | 0.00 | 0.00 | 0.00 | 52 | 1010.8 |
| 20260501234004 | 60 | 133 | 3.0 | 9.0 | 0.00 | 0.00 | 0.00 | 51 | 1010.8 |
| 20260501233525 | 60 | 146 | 2.0 | 8.0 | 0.00 | 0.00 | 0.00 | 50 | 1010.8 |
| 20260501233004 | 60 | 159 | 2.0 | 7.0 | 0.00 | 0.00 | 0.00 | 50 | 1010.7 |
| 20260501232503 | 60 | 121 | 1.0 | 7.0 | 0.00 | 0.00 | 0.00 | 50 | 1010.7 |
| 20260501232025 | 61 | 125 | 1.0 | 7.0 | 0.00 | 0.00 | 0.00 | 50 | 1010.9 |
| 20260501231526 | 61 | 126 | 2.0 | 8.0 | 0.00 | 0.00 | 0.00 | 49 | 1010.7 |
| 20260501231004 | 61 | 141 | 2.0 | 8.0 | 0.00 | 0.00 | 0.00 | 48 | 1010.7 |
| 20260501230525 | 61 | 161 | 3.0 | 8.0 | 0.00 | 0.00 | 0.00 | 48 | 1010.7 |
| 20260501230004 | 62 | 170 | 3.0 | 10.0 | 0.00 | 0.00 | 0.00 | 47 | 1010.7 |
| 20260501225504 | 62 | 148 | 4.0 | 14.0 | 0.00 | 0.00 | 0.00 | 46 | 1010.7 |
| 20260501225004 | 62 | 134 | 4.0 | 14.0 | 0.00 | 0.00 | 0.00 | 46 | 1010.6 |
| 20260501224504 | 63 | 138 | 4.0 | 16.0 | 0.00 | 0.00 | 0.00 | 47 | 1010.6 |